NAKANO
         **** Don't distribute anyone except personal use only ****
           (C) Copyright 2009 Orbit.Astro.Assoc./ComputingSection
write mail from CFAD0::NAKANO on 2009-09-05 06:52:50(JST).
 



    C/2007 U1 (LINEAR)

Epoch 2008 Aug. 2.0 TT = JDT 2454680.5  

T 2008 Aug. 7.05506 TT                                  Nakano

q   3.3291837            (2000.0)            P               Q

z  -0.0004367      Peri.    0.92858     +0.65362566     +0.69914017

 +/-0.0000009      Node    50.04322     +0.69190714     -0.70717292

e   1.0014537      Incl.  157.78700     +0.30665618     +0.10540155

From 492 observations 2007 Oct. 19-2008 Oct. 31, mean residual 0".52.

   (1/a)org.= +0.000152, (1/a)fut.= +0.000049 (+/-0.000001), Q= 8.

   The comet has passed 3.96 AU from Saturn on 2006 Aug. 25 UT and will

   pass 2.08 AU from Jupiter on 2009 Nov. 14 UT.


NAKANO

         **** Don't distribute anyone except personal use only ****

                (C) Copyright 2008 OAA/ComputingSection

write mail from CFAD0::NAKANO on 2008-11-05 05:02:23(JST).

 

  C/2007 U1 (LINEAR)

Epoch 2008 Aug. 2.0 TT = JDT 2454680.5

T 2008 Aug. 7.06219 TT                                  Nakano

q   3.3291333            (2000.0)            P               Q

z  -0.0004296      Peri.    0.92995     +0.65364898     +0.69912026

 +/-0.0000019      Node    50.04272     +0.69188502     -0.70719454

e   1.0014302      Incl.  157.78720     +0.30665638     +0.10538851

From 283 observations 2007 Oct. 19-2008 Aug. 31, mean residual 0".55.

   (1/a)org.= +0.000159, (1/a)fut.= +0.000056 (+/-0.000002), Q= 7.



NAKANO

         **** Don't distribute anyone except personal use only ****

                (C) Copyright 2008 OAA/ComputingSection

write mail from CFAD0::NAKANO on 2008-09-07 23:13:57(JST).



◎C/2007 U1の軌道と予報位置



 2008年3月9日の上尾の門田健一氏の観測で止まっていたこの彗星の再観測が

2008年7月以後に行なわれている.我が国でも,7月29日に美星,8月7日に上

尾,12日に八束(安部裕史),13日に守山(井狩康一)で再観測された.それぞ

れの CCD全光度は,7月29日が15.6等,8月7日が15.8等,12日が15.1等であっ

た.この彗星は,予報より1.5等級ほど明るく観測されている.なお,NK 1572に

ある軌道からのずれは,赤経方向に+7"であった.彗星は,2006年8月に土星に

3.96 AU,2009年11月に木星に2.08 AUまで接近した(する).



    C/2007 U1 (LINEAR)

Epoch 2008 Aug. 2.0 TT = JDT 2454680.5  

T 2008 Aug. 7.06092 TT                                  Nakano

q   3.3291424            (2000.0)            P               Q

z  -0.0004311      Peri.    0.92953     +0.65364525     +0.69912411

 +/-0.0000023      Node    50.04262     +0.69188910     -0.70719057

e   1.0014353      Incl.  157.78723     +0.30665513     +0.10538970

From 267 observations 2007 Oct. 19-2008 Aug. 13, mean residual 0".56.

   (1/a)org.= +0.000158, (1/a)fut.= +0.000055 (+/-0.000002), Q= 7.

   The comet has passed 3.96 AU from Saturn on 2006 Aug. 25 and will

   pass 2.08 AU from Jupiter on 2009 Nov. 14 UT.



 

Date/        TT  R.A.(2000) Decl.     Delta   r     Daily motion  Mag.  Moon Age

              h    h  m       。  ,                      ,  / PA 。  m1      。

2008 Aug. 15 18  04 10.02  +22 08.5   3.381  3.330    10.5 / 291  15.6  115  .99

          16 18  04 09.31  +22 12.3   3.361  3.330    10.9 / 290  15.6  102 1.00

          17 18  04 08.57  +22 16.0   3.341  3.331    11.3 / 290  15.5   89  .99

          18 18  04 07.81  +22 19.8   3.321  3.331    11.7 / 289  15.5   76  .96

          19 18  04 07.01  +22 23.6   3.300  3.331    12.1 / 288  15.5   62  .91

          20 18  04 06.18  +22 27.3   3.280  3.332    12.5 / 287  15.5   48  .84

          21 18  04 05.32  +22 31.0   3.260  3.332    12.9 / 287  15.5   34  .74

          22 18  04 04.43  +22 34.6   3.240  3.332    13.3 / 286  15.5   20  .64

          23 18  04 03.51  +22 38.3   3.219  3.333    13.8 / 285  15.5    7  .53

          24 18  04 02.55  +22 41.9   3.199  3.333    14.2 / 285  15.4    9  .41

          25 18  04 01.55  +22 45.5   3.179  3.334    14.7 / 284  15.4   23  .30

          26 18  04 00.52  +22 49.0   3.158  3.334    15.1 / 283  15.4   38  .20

          27 18  03 59.46  +22 52.5   3.138  3.335    15.6 / 283  15.4   52  .12

          28 18  03 58.35  +22 55.9   3.118  3.335    16.1 / 282  15.4   66  .05

          29 18  03 57.21  +22 59.3   3.098  3.336    16.6 / 282  15.4   81  .01

          30 18  03 56.04  +23 02.7   3.078  3.337    17.1 / 281  15.4   95  .00

          31 18  03 54.82  +23 06.0   3.058  3.337    17.6 / 281  15.4  109  .01

     Sept. 1 18  03 53.56  +23 09.2   3.038  3.338    18.2 / 280  15.3  122  .04

           2 18  03 52.27  +23 12.3   3.018  3.339    18.7 / 280  15.3  135  .10

           3 18  03 50.93  +23 15.4   2.999  3.339    19.2 / 279  15.3  148  .16

           4 18  03 49.55  +23 18.4   2.979  3.340    19.8 / 279  15.3  161  .24

           5 18  03 48.13  +23 21.4   2.960  3.341    20.3 / 278  15.3  173  .33

           6 18  03 46.66  +23 24.2   2.941  3.342    20.9 / 278  15.3  174  .42

           7 18  03 45.16  +23 27.0   2.921  3.343    21.5 / 277  15.3  162  .52

           8 18  03 43.61  +23 29.6   2.903  3.343    22.1 / 277  15.2  150  .61

           9 18  03 42.01  +23 32.2   2.884  3.344    22.7 / 276  15.2  138  .70

          10 18  03 40.38  +23 34.7   2.865  3.345    23.3 / 276  15.2  125  .79

          11 18  03 38.69  +23 37.0   2.847  3.346    23.9 / 275  15.2  113  .86

          12 18  03 36.96  +23 39.2   2.829  3.347    24.5 / 275  15.2  100  .92

          13 18  03 35.19  +23 41.3   2.811  3.348    25.1 / 275  15.2   86  .97

          14 18  03 33.37  +23 43.2   2.793  3.349    25.7 / 274  15.2   73  .99

          15 18  03 31.50  +23 45.0   2.776  3.350    26.3 / 274  15.2   59 1.00

          16 18  03 29.59  +23 46.7   2.759  3.351    26.9 / 273  15.1   44  .98

          17 18  03 27.63  +23 48.2   2.742  3.352    27.5 / 273  15.1   30  .93

          18 18  03 25.63  +23 49.5   2.725  3.353    28.2 / 272  15.1   15  .86

          19 18  03 23.58  +23 50.6   2.709  3.355    28.8 / 272  15.1    0  .77

          20 18  03 21.48  +23 51.6   2.693  3.356    29.4 / 272  15.1   14  .67

          21 18  03 19.33  +23 52.3   2.677  3.357    30.1 / 271  15.1   29  .55

          22 18  03 17.14  +23 52.9   2.662  3.358    30.7 / 271  15.1   44  .44

          23 18  03 14.91  +23 53.3   2.647  3.359    31.3 / 270  15.1   58  .33

          24 18  03 12.62  +23 53.4   2.632  3.361    31.9 / 270  15.0   73  .23

          25 18  03 10.30  +23 53.3   2.618  3.362    32.5 / 270  15.0   87  .14

          26 18  03 07.92  +23 52.9   2.604  3.363    33.1 / 269  15.0  101  .07

          27 18  03 05.51  +23 52.4   2.591  3.365    33.7 / 269  15.0  115  .03

          28 18  03 03.05  +23 51.5   2.578  3.366    34.3 / 268  15.0  129  .00

          29 18  03 00.55  +23 50.4   2.565  3.367    34.9 / 268  15.0  142  .00

          30 18  02 58.01  +23 49.0   2.553  3.369    35.5 / 267  15.0  155  .02

     Oct.  1 18  02 55.43  +23 47.4   2.542  3.370    36.0 / 267  15.0  168  .06

NAKANO

         **** Don't distribute anyone except personal use only ****

                (C) Copyright 2008 OAA/ComputingSection

write mail from CFAD0::NAKANO on 2008-08-15 07:29:51(JST).

 



    C/2007 U1 (LINEAR)

Epoch 2008 Aug. 2.0 TT = JDT 2454680.5  

T 2008 Aug. 7.03460 TT                                  Nakano

q   3.3292391            (2000.0)            P               Q

z  -0.0005015      Peri.    0.92404     +0.65359437     +0.69917564

 +/-0.0000232      Node    50.04140     +0.69194412     -0.70713699

e   1.0016697      Incl.  157.78759     +0.30663940     +0.10540726

From 219 observations 2007 Oct. 19-2008 Feb. 8, mean residual 0".49.

   (1/a)org.= +0.000087, (1/a)fut.= -0.000016 (+/-0.000023), Q= 6.

    The comet has passed 3.96 AU from Saturn on 2006 Aug. 25 UT and

    will pass 2.08 AU from Jupiter on 2009 Nov. 14 UT.

NAKANO

         **** Don't distribute anyone except personal use only ****

                (C) Copyright 2008 OAA/ComputingSection

write mail from CFAD0::NAKANO on 2008-02-15 03:48:21(JST).

 



    C/2007 U1 (LINEAR)

T 2008 Aug. 7.20975 TT                                  Nakano

q   3.3293385            (2000.0)            P               Q

                   Peri.    0.94580     +0.65375612     +0.69900524

                   Node    50.04925     +0.69175764     -0.70731454

e   1.0            Incl.  157.78654     +0.30671534     +0.10534614

From 99 observations 2007 Oct. 19-Nov. 24.



NAKANO

         **** Don't distribute anyone except personal use only ****

                (C) Copyright 2007 OAA/ComputingSection

write mail from CFAD0::NAKANO on 2007-11-30 09:05:11(JST).

 







◎C/2007 U1の軌道と予報位置



 上尾の門田健一氏から10月23日の観測が報告されました.氏のCCD全光度は,

18.4等でした.



    C/2007 U1 (LINEAR)

T 2008 Aug. 6.69906 TT                                  Nakano

q   3.3697475            (2000.0)            P               Q

                   Peri.  359.82421     +0.64364240     +0.70922808

                   Node    49.77317     +0.70263214     -0.69656667

e   1.0            Incl.  157.87036     +0.30336863     +0.10858361

From 41 observations 2007 Oct. 19-23.

 

Date/        TT  R.A.(2000) Decl.     Delta   r     Daily motion  Mag.  Moon Age

              h    h  m       。  ,                      ,  / PA 。  m1      。

2007 Oct. 25 18  07 40.36  +02 17.9   4.066  4.268     9.8 / 260  18.3   92 1.00

          26 18  07 39.71  +02 16.2   4.042  4.263    10.1 / 260  18.3   78  .99

          27 18  07 39.04  +02 14.5   4.018  4.258    10.5 / 261  18.2   64  .96

          28 18  07 38.35  +02 12.9   3.994  4.252    10.9 / 261  18.2   50  .90

          29 18  07 37.64  +02 11.3   3.971  4.247    11.2 / 262  18.2   38  .82

          30 18  07 36.89  +02 09.7   3.947  4.242    11.6 / 262  18.2   28  .72

          31 18  07 36.13  +02 08.1   3.923  4.236    12.0 / 263  18.2   23  .62

     Nov.  1 18  07 35.33  +02 06.6   3.900  4.231    12.4 / 263  18.2   25  .51

           2 18  07 34.52  +02 05.2   3.877  4.226    12.8 / 264  18.1   32  .41

